Weather History for Big Piney, WY

Change the Weather History Date:

Sunday, October 20, 2013

  Actual Average Record
Temperature  
Mean Temperature 39 °F 37 °F  
Max Temperature 54 °F 54 °F 72 °F (2003)
Min Temperature 24 °F 20 °F 3 °F (1976)
Degree Days  
Heating Degree Days 26 28  
Month to date heating degree days 534 491  
Since 1 July heating degree days 972 1242  
Cooling Degree Days 0 0  
Month to date cooling degree days 0 0  
Year to date cooling degree days 89 35  
Moisture  
Dew Point 21 °F    
Average Humidity 51    
Maximum Humidity 78    
Minimum Humidity 24    
Precipitation  
Precipitation 0.00 in 0.02 in 0.98 in (2004)
Month to date precipitation 0.32 0.41  
Year to date precipitation 4.15 5.85  
Sea Level Pressure  
Sea Level Pressure 30.00 in    
Wind  
Wind Speed 7 mph (North)    
Max Wind Speed 16 mph    
Max Gust Speed 21 mph    
Visibility 10 miles    
Events      
T = Trace of Precipitation, MM = Missing Value Source: NWS Daily Summary

Daily Weather History Graph

Daily Weather History Graph

Search for Another Location

Airport:

Trip Planner

Search our weather history database for the weather conditions in past years. The results will help you decide how hot, cold, wet, or windy it might be!

Date:

Astronomy

Oct. 20, 2013 Rise Set
Actual Time 7:39 AM MDT 6:29 PM MDT
Civil Twilight 7:11 AM MDT 6:58 PM MDT
Nautical Twilight 6:38 AM MDT 7:31 PM MDT
Astronomical Twilight 6:05 AM MDT 8:03 PM MDT
Moon 7:38 PM MDT (10/20) 9:23 AM MDT (10/20)
Length of Visible Light 11h 47m
Length of Day
10h 50m
Full, 97% of the Moon is Illuminated
Oct 20
Full
Oct 26
Last Quarter
Nov 3
New
Nov 9
First Quarter
Nov 17
Full

Hourly Weather History & Observations

Time (MDT) Temp. Windchill Dew Point Humidity Pressure Visibility Wind Dir Wind Speed Gust Speed Precip Events Conditions
12:53 AM 33.1 °F - 21.9 °F 64% 29.96 in 10.0 mi Calm Calm - N/A   Clear
1:53 AM 30.0 °F 26.5 °F 19.9 °F 66% 29.95 in 10.0 mi NNW 3.5 mph - N/A   Clear
2:53 AM 27.0 °F - 19.9 °F 75% 29.96 in 10.0 mi Calm Calm - N/A   Partly Cloudy
3:53 AM 28.9 °F - 21.9 °F 75% 29.94 in 10.0 mi Calm Calm - N/A   Clear
4:53 AM 30.9 °F 24.3 °F 24.1 °F 76% 29.94 in 10.0 mi NNW 6.9 mph - N/A   Overcast
5:53 AM 36.0 °F 29.6 °F 23.0 °F 59% 29.94 in 10.0 mi North 8.1 mph - N/A   Partly Cloudy
6:53 AM 35.1 °F - 24.1 °F 64% 29.96 in 10.0 mi Calm Calm - N/A   Overcast
7:53 AM 34.0 °F 28.0 °F 24.1 °F 67% 30.01 in 10.0 mi North 6.9 mph - N/A   Overcast
8:53 AM 37.0 °F - 25.0 °F 62% 30.02 in 10.0 mi Calm Calm - N/A   Clear
9:53 AM 45.0 °F 41.2 °F 24.1 °F 44% 29.99 in 10.0 mi NE 6.9 mph - N/A   Clear
10:53 AM 48.0 °F - 23.0 °F 37% 29.99 in 10.0 mi NE 13.8 mph 17.3 mph N/A   Clear
11:53 AM 50.0 °F - 19.9 °F 31% 29.99 in 10.0 mi NNE 11.5 mph - N/A   Mostly Cloudy
12:53 PM 48.9 °F - 19.0 °F 31% 29.98 in 10.0 mi NNW 11.5 mph 19.6 mph N/A   Mostly Cloudy
1:53 PM 51.1 °F - 18.0 °F 27% 29.97 in 10.0 mi NW 6.9 mph 17.3 mph N/A   Scattered Clouds
2:53 PM 52.0 °F - 18.0 °F 26% 29.97 in 10.0 mi NNW 9.2 mph - N/A   Partly Cloudy
3:53 PM 53.1 °F - 17.1 °F 24% 29.96 in 10.0 mi NNE 9.2 mph - N/A   Scattered Clouds
4:53 PM 50.0 °F - 17.1 °F 27% 29.96 in 10.0 mi North 10.4 mph 18.4 mph N/A   Overcast
5:53 PM 48.0 °F - 18.0 °F 30% 29.97 in 10.0 mi NNE 11.5 mph - N/A   Clear
6:53 PM 39.9 °F 32.9 °F 19.0 °F 43% 30.02 in 10.0 mi NNE 11.5 mph - N/A   Partly Cloudy
7:53 PM 35.1 °F 27.9 °F 19.9 °F 54% 30.09 in 10.0 mi NNW 9.2 mph - N/A   Clear
8:53 PM 30.0 °F 21.7 °F 19.9 °F 66% 30.11 in 10.0 mi NNW 9.2 mph - N/A   Clear
9:53 PM 28.9 °F 20.4 °F 19.9 °F 69% 30.09 in 10.0 mi NNW 9.2 mph - N/A   Clear
10:53 PM 27.0 °F - 19.0 °F 72% 30.11 in 10.0 mi Calm Calm - N/A   Clear
11:53 PM 28.9 °F - 19.0 °F 67% 30.10 in 10.0 mi Calm Calm - N/A   Clear